User: anonymous   Login
Location: Terra Rouge Observatory
(46.0000°N, 62.7500°W)
Time: 09:12:12
(UTC-04:00)
Language:

Landsat 5 - Orbit

View from above orbital plane
View from above orbital plane
View from above satellite
View from above satellite

Ground track
Ground track

The orbit data is extracted from the following two-line orbital elements,

1 14780U 84021A   18051.92855381 +.00000162 +00000-0 +20923-4 0  9990
2 14780 098.0581 174.0761 0091938 070.8989 290.2156 14.91673432337413
Epoch (UTC): 20 February 2018 22:17:07
Eccentricity: 0.0091938
inclination: 98.0581°
perigee height: 528 km
apogee height: 657 km
right ascension of ascending node: 174.0761°
argument of perigee: 70.8989°
revolutions per day: 14.91673432
mean anomaly at epoch: 290.2156°
orbit number at epoch: 33741

The dashed part of the orbit path shows where the satellite is in the earth's shadow,  

DLR